• In Uzbekistan
  • List of Countries
  • For 7 days
  • Water Temperature
  • Satellite Maps
  • Weather Map
  • Weather Widgets
  • user-avatar
    Login

    Hourly Weather Batina

    Today, 19 January, Thursday

    Time Temperature Precipitation Wind Pressure Humidity
    00:00 -2°C° 0 mm 1 mps 667 mmHg 80%
    01:00 -2°C° 0 mm 1 mps 667 mmHg 77%
    02:00 -2°C° 0 mm 1 mps 667 mmHg 74%
    03:00 -1°C° 0 mm 1 mps 667 mmHg 72%
    04:00 -1°C° 0 mm 1 mps 667 mmHg 70%
    05:00 -1°C° 0 mm 1 mps 667 mmHg 68%
    06:00 -2°C° 0 mm 1 mps 668 mmHg 66%
    07:00 +1°C° 0 mm 1 mps 668 mmHg 61%
    08:00 +3°C° 0 mm 1 mps 669 mmHg 55%
    09:00 +4°C° 0 mm 2 mps 670 mmHg 50%
    10:00 +5°C° 0 mm 2 mps 670 mmHg 49%
    11:00 +6°C° 0 mm 2 mps 670 mmHg 47%
    12:00 +7°C° 0 mm 2 mps 670 mmHg 45%
    13:00 +7°C° 0 mm 2 mps 670 mmHg 45%
    14:00 +7°C° 0 mm 2 mps 669 mmHg 46%
    15:00 +7°C° 0 mm 2 mps 669 mmHg 46%
    16:00 +5°C° 0 mm 2 mps 669 mmHg 52%
    17:00 +3°C° 0 mm 2 mps 668 mmHg 59%
    18:00 +1°C° 0 mm 1 mps 667 mmHg 65%
    19:00 +1°C° 0 mm 1 mps 668 mmHg 65%
    20:00 +1°C° 0 mm 1 mps 668 mmHg 65%
    21:00 +1°C° 0 mm 1 mps 668 mmHg 65%
    22:00 0°C° 0 mm 1 mps 668 mmHg 65%
    23:00 0°C° 0 mm 1 mps 668 mmHg 65%

    Tomorrow, 20 January, Friday

    Time Temperature Precipitation Wind Pressure Humidity
    00:00 0°C° 0 mm 1 mps 668 mmHg 66%
    01:00 0°C° 0 mm 1 mps 667 mmHg 65%
    02:00 0°C° 0 mm 1 mps 667 mmHg 64%
    03:00 0°C° 0 mm 1 mps 667 mmHg 64%
    04:00 -2°C° 0 mm 2 mps 667 mmHg 63%
    05:00 -2°C° 0 mm 2 mps 667 mmHg 63%
    06:00 -2°C° 0 mm 2 mps 666 mmHg 62%
    07:00 0°C° 0 mm 3 mps 667 mmHg 59%
    08:00 +2°C° 0 mm 3 mps 667 mmHg 57%
    09:00 +4°C° 0 mm 4 mps 668 mmHg 54%
    10:00 +5°C° 0 mm 5 mps 667 mmHg 54%
    11:00 +5°C° 0 mm 6 mps 667 mmHg 54%
    12:00 +7°C° 0 mm 8 mps 667 mmHg 54%
    13:00 +6°C° 0.1 mm 8 mps 666 mmHg 58%
    14:00 +6°C° 0.1 mm 8 mps 665 mmHg 62%
    15:00 +5°C° 0.1 mm 8 mps 665 mmHg 67%
    16:00 +4°C° 0.1 mm 7 mps 664 mmHg 70%
    17:00 +3°C° 0.1 mm 6 mps 664 mmHg 73%
    18:00 +1°C° 0.1 mm 4 mps 663 mmHg 76%
    19:00 +1°C° 0 mm 4 mps 663 mmHg 74%
    20:00 +1°C° 0 mm 4 mps 663 mmHg 72%
    21:00 0°C° 0 mm 4 mps 663 mmHg 70%
    22:00 +1°C° 0.1 mm 3 mps 662 mmHg 68%
    23:00 +1°C° 0.1 mm 3 mps 662 mmHg 66%

    Day after tomorrow, 21 January, Saturday

    Time Temperature Precipitation Wind Pressure Humidity
    00:00 +1°C° 0.1 mm 3 mps 662 mmHg 63%
    01:00 0°C° 0.1 mm 3 mps 661 mmHg 66%
    02:00 +1°C° 0.1 mm 2 mps 661 mmHg 68%
    03:00 -1°C° 0.1 mm 2 mps 661 mmHg 71%
    04:00 -2°C° 0 mm 2 mps 661 mmHg 73%
    05:00 0°C° 0 mm 1 mps 660 mmHg 75%
    06:00 -1°C° 0 mm 1 mps 660 mmHg 77%
    07:00 -1°C° 0 mm 2 mps 661 mmHg 72%
    08:00 +1°C° 0 mm 2 mps 662 mmHg 67%
    09:00 +2°C° 0 mm 3 mps 663 mmHg 62%
    10:00 +3°C° 0 mm 4 mps 663 mmHg 60%
    11:00 +3°C° 0 mm 4 mps 663 mmHg 58%
    12:00 +3°C° 0 mm 5 mps 663 mmHg 55%
    13:00 +3°C° 0 mm 5 mps 663 mmHg 56%
    14:00 +3°C° 0 mm 5 mps 663 mmHg 58%
    15:00 +3°C° 0 mm 5 mps 662 mmHg 59%
    16:00 +3°C° 0 mm 4 mps 663 mmHg 64%
    17:00 0°C° 0 mm 4 mps 663 mmHg 68%
    18:00 -1°C° 0 mm 4 mps 663 mmHg 72%
    19:00 -1°C° 0.1 mm 4 mps 663 mmHg 74%
    20:00 -1°C° 0.1 mm 4 mps 664 mmHg 75%
    21:00 -1°C° 0.1 mm 4 mps 664 mmHg 76%
    22:00 -1°C° 0 mm 4 mps 664 mmHg 77%
    23:00 0°C° 0 mm 3 mps 664 mmHg 78%

    22 January, Sunday

    Time Temperature Precipitation Wind Pressure Humidity
    00:00 0°C° 0 mm 3 mps 664 mmHg 79%
    01:00 0°C° 0 mm 3 mps 664 mmHg 79%
    02:00 -1°C° 0 mm 3 mps 664 mmHg 80%
    03:00 -1°C° 0 mm 3 mps 664 mmHg 81%
    04:00 -1°C° 0 mm 3 mps 664 mmHg 83%
    05:00 -2°C° 0 mm 3 mps 664 mmHg 84%
    06:00 -2°C° 0 mm 3 mps 664 mmHg 86%
    07:00 -2°C° 0 mm 4 mps 664 mmHg 79%
    08:00 0°C° 0 mm 5 mps 665 mmHg 72%
    09:00 +1°C° 0 mm 6 mps 665 mmHg 65%
    10:00 +2°C° 0 mm 7 mps 665 mmHg 63%
    11:00 +2°C° 0 mm 7 mps 665 mmHg 60%
    12:00 +2°C° 0 mm 8 mps 665 mmHg 57%
    13:00 +2°C° 0.1 mm 8 mps 665 mmHg 58%
    14:00 +1°C° 0.1 mm 8 mps 664 mmHg 58%
    15:00 +1°C° 0.1 mm 8 mps 664 mmHg 59%
    16:00 +1°C° 0.1 mm 6 mps 664 mmHg 60%
    17:00 +1°C° 0.1 mm 5 mps 664 mmHg 62%
    18:00 0°C° 0.1 mm 4 mps 664 mmHg 64%
    19:00 0°C° 0.1 mm 4 mps 664 mmHg 66%
    20:00 +1°C° 0.1 mm 3 mps 665 mmHg 67%
    21:00 +2°C° 0.1 mm 2 mps 665 mmHg 69%
    22:00 +1°C° 0.1 mm 2 mps 665 mmHg 72%
    23:00 +1°C° 0.1 mm 2 mps 665 mmHg 74%

    23 January, Monday

    Time Temperature Precipitation Wind Pressure Humidity
    00:00 +1°C° 0.1 mm 2 mps 665 mmHg 77%
    01:00 +1°C° 0 mm 1 mps 664 mmHg 80%
    02:00 +1°C° 0 mm 1 mps 664 mmHg 84%
    03:00 0°C° 0 mm 1 mps 664 mmHg 87%
    04:00 0°C° 0 mm 1 mps 664 mmHg 88%
    05:00 0°C° 0 mm 1 mps 665 mmHg 89%
    06:00 0°C° 0 mm 1 mps 665 mmHg 90%
    07:00 +1°C° 0 mm 1 mps 666 mmHg 84%
    08:00 +2°C° 0 mm 2 mps 666 mmHg 78%
    09:00 +3°C° 0 mm 2 mps 667 mmHg 72%
    10:00 +5°C° 0 mm 2 mps 667 mmHg 68%
    11:00 +5°C° 0 mm 3 mps 667 mmHg 63%
    12:00 +7°C° 0 mm 3 mps 668 mmHg 58%
    13:00 +6°C° 0 mm 4 mps 667 mmHg 59%
    14:00 +6°C° 0 mm 4 mps 667 mmHg 59%
    15:00 +6°C° 0 mm 4 mps 667 mmHg 60%
    16:00 +4°C° 0 mm 3 mps 667 mmHg 68%
    17:00 +3°C° 0 mm 3 mps 667 mmHg 76%
    18:00 +2°C° 0 mm 2 mps 667 mmHg 84%
    19:00 +2°C° 0 mm 2 mps 667 mmHg 85%
    20:00 +1°C° 0 mm 2 mps 667 mmHg 86%
    21:00 +1°C° 0 mm 2 mps 668 mmHg 88%
    22:00 +1°C° 0 mm 2 mps 667 mmHg 88%
    23:00 -1°C° 0 mm 2 mps 667 mmHg 89%

    24 January, Tuesday

    Time Temperature Precipitation Wind Pressure Humidity
    00:00 -1°C° 0 mm 2 mps 667 mmHg 90%
    01:00 -1°C° 0 mm 2 mps 667 mmHg 90%
    02:00 -1°C° 0 mm 2 mps 667 mmHg 90%
    03:00 -2°C° 0 mm 2 mps 667 mmHg 90%
    04:00 -2°C° 0 mm 2 mps 667 mmHg 89%
    05:00 -2°C° 0 mm 2 mps 667 mmHg 89%
    06:00 -2°C° 0 mm 2 mps 667 mmHg 89%
    07:00 +1°C° 0 mm 2 mps 668 mmHg 82%
    08:00 +2°C° 0 mm 2 mps 668 mmHg 74%
    09:00 +3°C° 0 mm 3 mps 669 mmHg 67%
    10:00 +4°C° 0 mm 3 mps 669 mmHg 63%
    11:00 +5°C° 0 mm 4 mps 669 mmHg 59%
    12:00 +6°C° 0 mm 4 mps 669 mmHg 56%
    13:00 +6°C° 0.1 mm 4 mps 669 mmHg 58%
    14:00 +6°C° 0.1 mm 4 mps 669 mmHg 61%
    15:00 +5°C° 0.1 mm 4 mps 669 mmHg 64%
    16:00 +4°C° 0.1 mm 4 mps 669 mmHg 71%
    17:00 +3°C° 0.1 mm 3 mps 669 mmHg 78%
    18:00 +3°C° 0.1 mm 2 mps 669 mmHg 85%
    19:00 +2°C° 0 mm 2 mps 670 mmHg 86%
    20:00 +2°C° 0 mm 2 mps 670 mmHg 86%
    21:00 +2°C° 0 mm 2 mps 670 mmHg 87%
    22:00 +2°C° 0 mm 2 mps 670 mmHg 87%
    23:00 +1°C° 0 mm 2 mps 670 mmHg 87%
    Show more